PA3DZX-13 Weather Reports


Display with metric or nautical units.
time (UTC)temp
F
wind
direction
speed
MPH
gust
MPH
rain 1hr
in
rain 24hr
in
rain mn
in
humidity
%
barometer
mb
20260902095333 68 222 11.0 15.0 0.00 0.00 0.00 59 1020.0
20260902093833 68 233 11.0 15.0 0.00 0.00 0.00 61 1019.9
20260902092332 66 231 11.0 17.0 0.00 0.00 0.00 64 1019.9
20260902090831 66 224 8.0 17.0 0.00 0.00 0.00 64 1019.9
20260902085331 64 237 8.0 15.0 0.00 0.00 0.00 66 1019.8
20260902083830 64 227 8.0 13.0 0.00 0.00 0.00 68 1019.7
20260902082330 62 213 6.0 11.0 0.00 0.00 0.00 74 1019.7
20260902080830 62 215 6.0 11.0 0.00 0.00 0.00 73 1019.7
20260902075329 59 208 4.0 8.0 0.00 0.00 0.00 80 1019.7
20260902073828 59 200 4.0 8.0 0.00 0.00 0.00 82 1019.7
20260902072327 57 194 4.0 6.0 0.00 0.00 0.00 84 1019.6
20260902070827 57 189 2.0 4.0 0.00 0.00 0.00 88 1019.5
20260902065326 57 189 2.0 4.0 0.00 0.00 0.00 88 1019.5
20260902063825 55 195 2.0 4.0 0.00 0.00 0.00 89 1019.5
20260902062324 55 176 2.0 4.0 0.00 0.00 0.00 90 1019.6
20260902060824 53 170 4.0 4.0 0.00 0.00 0.00 92 1019.6
20260902055323 53 173 2.0 4.0 0.00 0.00 0.00 93 1019.4
20260902053823 51 171 2.0 4.0 0.00 0.00 0.00 93 1019.4
20260902052322 51 191 2.0 2.0 0.00 0.00 0.00 91 1019.4
20260902050822 51 183 2.0 2.0 0.00 0.00 0.00 94 1019.4
20260902045321 51 158 2.0 2.0 0.00 0.00 0.00 93 1019.4
20260902043821 51 151 2.0 2.0 0.00 0.00 0.00 94 1019.2
20260902042320 51 157 2.0 2.0 0.00 0.00 0.00 94 1019.3
20260902040820 51 165 2.0 2.0 0.00 0.00 0.00 95 1019.4
20260902035319 51 157 2.0 2.0 0.00 0.00 0.00 96 1019.6
20260902033818 51 151 2.0 2.0 0.00 0.00 0.00 95 1019.6
20260902032318 51 175 0.0 0.0 0.00 0.00 0.00 95 1019.7
20260902030818 51 181 0.0 0.0 0.00 0.00 0.00 96 1019.7
20260902025317 51 185 0.0 2.0 0.00 0.00 0.00 95 1019.8
20260902023816 50 165 2.0 2.0 0.00 0.00 0.00 95 1019.9
20260902022315 50 165 2.0 2.0 0.00 0.00 0.00 95 1019.9
20260902020815 51 173 0.0 2.0 0.00 0.00 0.00 96 1019.9
20260902015315 51 163 2.0 2.0 0.00 0.00 0.00 96 1019.9
20260902013813 50 156 2.0 2.0 0.00 0.00 0.00 95 1019.8
20260902012313 48 151 0.0 2.0 0.00 0.00 0.00 95 1019.9
20260902010812 48 153 0.0 2.0 0.00 0.00 0.00 96 1020.0
20260902005313 50 181 0.0 2.0 0.00 0.00 0.00 96 1020.0
20260902003812 50 174 2.0 2.0 0.00 0.00 0.00 96 1020.0
20260902002312 50 123 0.0 0.0 0.00 0.00 0.00 95 1020.0
20260902000812 50 122 0.0 0.0 0.00 0.00 0.00 97 1020.0
20260901235310 50 331 0.0 0.0 0.00 0.00 0.00 95 1020.2
20260901233811 50 330 0.0 0.0 0.00 0.00 0.00 98 1020.2
20260901232310 50 331 0.0 0.0 0.00 0.00 0.00 96 1020.1
20260901230810 48 87 0.0 2.0 0.00 0.00 0.00 96 1020.1
20260901225309 50 127 2.0 2.0 0.00 0.00 0.00 95 1020.5
20260901223810 50 129 0.0 0.0 0.00 0.00 0.00 96 1020.7
20260901222309 50 127 0.0 0.0 0.00 0.00 0.00 99 1020.7
20260901220808 48 128 0.0 2.0 0.00 0.00 0.00 96 1020.8
20260901215308 50 128 0.0 0.0 0.00 0.00 0.00 95 1020.9
20260901213809 50 128 0.0 0.0 0.00 0.00 0.00 96 1020.8
20260901212309 51 128 0.0 0.0 0.00 0.00 0.00 95 1020.6
20260901210808 51 129 0.0 0.0 0.00 0.00 0.00 96 1020.7
20260901205308 51 128 0.0 0.0 0.00 0.00 0.00 95 1020.5
20260901203807 53 128 0.0 2.0 0.00 0.00 0.00 96 1020.4
20260901202306 51 123 0.0 0.0 0.00 0.00 0.00 94 1020.4
20260901200805 53 112 0.0 2.0 0.00 0.00 0.00 96 1020.3
20260901195306 53 127 0.0 2.0 0.00 0.00 0.00 92 1020.2
20260901193804 53 152 0.0 0.0 0.00 0.00 0.00 89 1020.3
20260901192301 57 157 0.0 0.0 0.00 0.00 0.00 85 1020.4
20260901190800 57 169 0.0 2.0 0.00 0.00 0.00 84 1020.4
20260901185259 57 328 0.0 2.0 0.00 0.00 0.00 81 1020.3
20260901183759 60 310 2.0 4.0 0.00 0.00 0.00 71 1020.2
20260901182258 64 306 4.0 6.0 0.00 0.00 0.00 66 1020.1
20260901180758 64 304 4.0 8.0 0.00 0.00 0.00 64 1020.1
20260901175258 66 298 4.0 8.0 0.00 0.00 0.00 61 1020.0
20260901173758 66 308 6.0 8.0 0.00 0.00 0.00 60 1019.9
20260901172257 66 312 6.0 11.0 0.00 0.00 0.00 57 1019.8
20260901170757 66 317 4.0 11.0 0.00 0.00 0.00 58 1019.8
20260901165256 66 293 8.0 13.0 0.00 0.00 0.00 56 1019.7
20260901163756 68 290 8.0 13.0 0.00 0.00 0.00 51 1019.6
20260901162255 68 270 8.0 13.0 0.00 0.00 0.00 53 1019.5
20260901160754 68 282 8.0 15.0 0.00 0.00 0.00 52 1019.5
20260901155253 68 293 6.0 11.0 0.00 0.00 0.00 49 1019.5
20260901153752 69 298 6.0 15.0 0.00 0.00 0.00 50 1019.4
20260901152252 69 267 8.0 17.0 0.00 0.00 0.00 47 1019.3
20260901150752 69 260 13.0 17.0 0.00 0.00 0.00 48 1019.3
20260901145251 69 263 11.0 17.0 0.00 0.00 0.00 47 1019.3
20260901143751 68 266 11.0 15.0 0.00 0.00 0.00 50 1019.3
20260901142250 69 282 8.0 17.0 0.00 0.00 0.00 49 1019.3
20260901140749 69 277 8.0 17.0 0.00 0.00 0.00 50 1019.2
20260901135248 71 281 11.0 17.0 0.00 0.00 0.00 50 1019.2
20260901133748 69 293 11.0 17.0 0.00 0.00 0.00 49 1019.1
20260901132247 68 279 11.0 22.0 0.00 0.00 0.00 53 1019.0
20260901130747 68 295 13.0 22.0 0.00 0.00 0.00 54 1019.1
20260901125246 68 275 11.0 17.0 0.00 0.00 0.00 54 1019.1
20260901123747 68 289 11.0 17.0 0.00 0.00 0.00 54 1019.1
20260901122245 69 286 8.0 17.0 0.00 0.00 0.00 55 1018.9
20260901120745 68 268 11.0 20.0 0.00 0.00 0.00 60 1018.9
20260901115244 69 278 11.0 17.0 0.00 0.00 0.00 58 1018.8
20260901113745 68 267 6.0 15.0 0.00 0.00 0.00 67 1018.8
20260901112244 66 237 8.0 17.0 0.00 0.00 0.00 72 1018.8
20260901110743 66 225 6.0 8.0 0.00 0.00 0.00 79 1018.9
20260901105243 64 241 8.0 13.0 0.00 0.00 0.00 82 1019.0
20260901103742 64 228 8.0 13.0 0.00 0.00 0.00 83 1019.0
20260901102242 64 206 6.0 13.0 0.00 0.00 0.00 86 1019.0
20260901100742 62 208 6.0 11.0 0.00 0.00 0.00 87 1019.0